Estevan, Canada

11:55 AM CST on August 30, 2016 (GMT -0600)
Estevan

Weather History for CYEN - August, 2014

Change the Weather History Date:

Thursday, August 28, 2014

  Actual Average Record
Temperature  
Mean Temperature 72 °F -  
Max Temperature 87 °F 75 °F 93 °F (2001)
Min Temperature 58 °F 49 °F 39 °F (2008)
Cooling Degree Days 8    
Growing Degree Days 22 (Base 50)    
Moisture  
Dew Point 59 °F    
Average Humidity 66    
Maximum Humidity 94    
Minimum Humidity 37    
Precipitation  
Precipitation 0.00 in - - ()
Sea Level Pressure  
Sea Level Pressure 29.83 in    
Wind  
Wind Speed 8 mph ()    
Max Wind Speed 13 mph    
Max Gust Speed -    
Visibility 15.0 miles    
Events      
Averages and records for this station are not official NWS values.
T = Trace of Precipitation, MM = Missing Value Source: Averaged Metar Reports

Daily Weather History Graph

Daily Weather History Graph

Search for Another Location

Airport or City:

Trip Planner

Search our weather history database for the weather conditions in past years. The results will help you decide how hot, cold, wet, or windy it might be!

Date:

Astronomy

Aug. 28, 2014 Rise Set
Actual Time 6:02 AM CST 7:42 PM CST
Civil Twilight 5:28 AM CST 8:16 PM CST
Nautical Twilight 4:47 AM CST 8:56 PM CST
Astronomical Twilight 4:02 AM CST 9:41 PM CST
Moon 9:16 AM CST (8/28) 8:46 PM CST (8/28)
Length of Visible Light 14h 47m
Length of Day
13h 40m
Waxing Crescent, 9% of the Moon is Illuminated
Aug 28
Waxing Crescent
Sep 2
First Quarter
Sep 8
Full
Sep 15
Last Quarter
Sep 24
New

Hourly Weather History & Observations

Time (CST) Temp. Heat Index Dew Point Humidity Pressure Visibility Wind Dir Wind Speed Gust Speed Precip Events Conditions
12:00 AM 66 °F - 57 °F 65% 29.91 in 15 mi South 9.2 mph - -   Scattered Clouds
12:00 AM 66.2 °F - 57.2 °F 73% 29.91 in 15.0 mi South 9.2 mph - N/A   Partly Cloudy
1:00 AM 66.2 °F - 57.2 °F 73% 29.89 in 15.0 mi SSW 10.4 mph - N/A   Partly Cloudy
2:00 AM 64.4 °F - 57.2 °F 77% 29.88 in 15.0 mi South 12.7 mph - N/A   Partly Cloudy
3:00 AM 62.6 °F - 57.2 °F 82% 29.87 in 15.0 mi SW 12.7 mph - N/A   Partly Cloudy
4:00 AM 60.8 °F - 57.2 °F 88% 29.87 in 15.0 mi SSW 10.4 mph - N/A   Partly Cloudy
5:00 AM 60.8 °F - 57.2 °F 88% 29.87 in 15.0 mi SW 6.9 mph - N/A   Partly Cloudy
6:00 AM 59 °F - 57 °F 92% 29.87 in 15 mi SSW 10.4 mph - -   Scattered Clouds
6:00 AM 59.0 °F - 57.2 °F 94% 29.87 in 15.0 mi SSW 10.4 mph - N/A   Partly Cloudy
7:00 AM 60.8 °F - 57.2 °F 88% 29.87 in 15.0 mi SW 8.1 mph - N/A   Partly Cloudy
8:00 AM 64.4 °F - 59.0 °F 83% 29.87 in 15.0 mi SW 8.1 mph - N/A   Partly Cloudy
9:00 AM 69.8 °F - 60.8 °F 73% 29.86 in 15.0 mi SW 9.2 mph - N/A   Partly Cloudy
10:00 AM 73.4 °F - 62.6 °F 69% 29.86 in 15.0 mi WSW 5.8 mph - N/A   Partly Cloudy
11:00 AM 78.8 °F - 60.8 °F 54% 29.85 in 15.0 mi SW 5.8 mph - N/A   Partly Cloudy
12:00 PM 82 °F - 60 °F 37% 29.83 in 15 mi SSW 9.2 mph - -   Scattered Clouds
12:00 PM 82.4 °F 82.9 °F 60.8 °F 48% 29.83 in 15.0 mi SSW 9.2 mph - N/A   Partly Cloudy
1:00 PM 84.2 °F 83.8 °F 59.0 °F 42% 29.81 in 15.0 mi SSW 10.4 mph - N/A   Partly Cloudy
2:00 PM 86.0 °F 85.4 °F 59.0 °F 40% 29.79 in 15.0 mi WSW 9.2 mph - N/A   Partly Cloudy
3:00 PM 86.0 °F 86.1 °F 60.8 °F 43% 29.77 in 15.0 mi SSW 8.1 mph - N/A   Partly Cloudy
4:00 PM 86.0 °F 84.9 °F 57.2 °F 37% 29.75 in 15.0 mi SSW 5.8 mph - N/A   Partly Cloudy
6:00 PM 82 °F - 62 °F 42% 29.73 in 15 mi WNW 3.5 mph - -   Partly Cloudy
6:00 PM 82.4 °F 83.4 °F 62.6 °F 51% 29.73 in 15.0 mi West 3.5 mph - N/A   Scattered Clouds
7:00 PM 80.6 °F 81.8 °F 62.6 °F 54% 29.73 in 15.0 mi WSW 3.5 mph - N/A   Scattered Clouds
9:00 PM 66.2 °F - 60.8 °F 83% 29.75 in 15.0 mi NW 8.1 mph - N/A   Scattered Clouds
10:00 PM 66.2 °F - 60.8 °F 83% 29.75 in 15.0 mi NNW 8.1 mph - N/A   Scattered Clouds